�p�l������,�ʖ���,����,����
�͐쐅�ʏ��,�`����@���V��,2021/2/28 0:00,-1
�͐쐅�ʏ��,�`����@���V��,2021/2/28 0:10,-1
�͐쐅�ʏ��,�`����@���V��,2021/2/28 0:20,-1
�͐쐅�ʏ��,�`����@���V��,2021/2/28 0:30,-1
�͐쐅�ʏ��,�`����@���V��,2021/2/28 0:40,-1
�͐쐅�ʏ��,�`����@���V��,2021/2/28 0:50,-1
�͐쐅�ʏ��,�`����@���V��,2021/2/28 1:00,-1
�͐쐅�ʏ��,�`����@���V��,2021/2/28 1:10,-1
�͐쐅�ʏ��,�`����@���V��,2021/2/28 1:20,-1
�͐쐅�ʏ��,�`����@���V��,2021/2/28 1:30,-1
�͐쐅�ʏ��,�`����@���V��,2021/2/28 1:40,-1
�͐쐅�ʏ��,�`����@���V��,2021/2/28 1:50,-1
�͐쐅�ʏ��,�`����@���V��,2021/2/28 2:00,-1
�͐쐅�ʏ��,�`����@���V��,2021/2/28 2:10,-1.01
�͐쐅�ʏ��,�`����@���V��,2021/2/28 2:20,-1
�͐쐅�ʏ��,�`����@���V��,2021/2/28 2:30,-1.01
�͐쐅�ʏ��,�`����@���V��,2021/2/28 2:40,-1.01
�͐쐅�ʏ��,�`����@���V��,2021/2/28 2:50,-1
�͐쐅�ʏ��,�`����@���V��,2021/2/28 3:00,-1.01
�͐쐅�ʏ��,�`����@���V��,2021/2/28 3:10,-1.01
�͐쐅�ʏ��,�`����@���V��,2021/2/28 3:20,-1.01
�͐쐅�ʏ��,�`����@���V��,2021/2/28 3:30,-1
�͐쐅�ʏ��,�`����@���V��,2021/2/28 3:40,-1.01
�͐쐅�ʏ��,�`����@���V��,2021/2/28 3:50,-1.01
�͐쐅�ʏ��,�`����@���V��,2021/2/28 4:00,-1.01
�͐쐅�ʏ��,�`����@���V��,2021/2/28 4:10,-1.01
�͐쐅�ʏ��,�`����@���V��,2021/2/28 4:20,-1
�͐쐅�ʏ��,�`����@���V��,2021/2/28 4:30,-1
�͐쐅�ʏ��,�`����@���V��,2021/2/28 4:40,-1.01
�͐쐅�ʏ��,�`����@���V��,2021/2/28 4:50,-1
�͐쐅�ʏ��,�`����@���V��,2021/2/28 5:00,-1.01
�͐쐅�ʏ��,�`����@���V��,2021/2/28 5:10,-1
�͐쐅�ʏ��,�`����@���V��,2021/2/28 5:20,-1.01
�͐쐅�ʏ��,�`����@���V��,2021/2/28 5:30,-1.01
�͐쐅�ʏ��,�`����@���V��,2021/2/28 5:40,-1
�͐쐅�ʏ��,�`����@���V��,2021/2/28 5:50,-1.01
�͐쐅�ʏ��,�`����@���V��,2021/2/28 6:00,-1
�͐쐅�ʏ��,�`����@���V��,2021/2/28 6:10,-1
�͐쐅�ʏ��,�`����@���V��,2021/2/28 6:20,-1.01
�͐쐅�ʏ��,�`����@���V��,2021/2/28 6:30,-1.01
�͐쐅�ʏ��,�`����@���V��,2021/2/28 6:40,-1.01
�͐쐅�ʏ��,�`����@���V��,2021/2/28 6:50,-1.01
�͐쐅�ʏ��,�`����@���V��,2021/2/28 7:00,-1.01
�͐쐅�ʏ��,�`����@���V��,2021/2/28 7:10,-1.01
�͐쐅�ʏ��,�`����@���V��,2021/2/28 7:20,-1.01
�͐쐅�ʏ��,�`����@���V��,2021/2/28 7:30,-1.01
�͐쐅�ʏ��,�`����@���V��,2021/2/28 7:40,-1.01
�͐쐅�ʏ��,�`����@���V��,2021/2/28 7:50,-1.01
�͐쐅�ʏ��,�`����@���V��,2021/2/28 8:00,-1.01
�͐쐅�ʏ��,�`����@���V��,2021/2/28 8:10,-1.01
�͐쐅�ʏ��,�`����@���V��,2021/2/28 8:20,-1.01
�͐쐅�ʏ��,�`����@���V��,2021/2/28 8:30,-1.01
�͐쐅�ʏ��,�`����@���V��,2021/2/28 8:40,-1.01
�͐쐅�ʏ��,�`����@���V��,2021/2/28 8:50,-1.01
�͐쐅�ʏ��,�`����@���V��,2021/2/28 9:00,-1.01
�͐쐅�ʏ��,�`����@���V��,2021/2/28 9:10,-1.01
�͐쐅�ʏ��,�`����@���V��,2021/2/28 9:20,-1.01
�͐쐅�ʏ��,�`����@���V��,2021/2/28 9:30,-1.01
�͐쐅�ʏ��,�`����@���V��,2021/2/28 9:40,-1.01
�͐쐅�ʏ��,�`����@���V��,2021/2/28 9:50,-1.01
�͐쐅�ʏ��,�`����@���V��,2021/2/28 10:00,-1.01
�͐쐅�ʏ��,�`����@���V��,2021/2/28 10:10,-1
�͐쐅�ʏ��,�`����@���V��,2021/2/28 10:20,-1.01
�͐쐅�ʏ��,�`����@���V��,2021/2/28 10:30,-1.01
�͐쐅�ʏ��,�`����@���V��,2021/2/28 10:40,-1.01
�͐쐅�ʏ��,�`����@���V��,2021/2/28 10:50,-1.01
�͐쐅�ʏ��,�`����@���V��,2021/2/28 11:00,-1.01
�͐쐅�ʏ��,�`����@���V��,2021/2/28 11:10,-1.01
�͐쐅�ʏ��,�`����@���V��,2021/2/28 11:20,-1.01
�͐쐅�ʏ��,�`����@���V��,2021/2/28 11:30,-1.01
�͐쐅�ʏ��,�`����@���V��,2021/2/28 11:40,-1.01
�͐쐅�ʏ��,�`����@���V��,2021/2/28 11:50,-1.01
�͐쐅�ʏ��,�`����@���V��,2021/2/28 12:00,-1.01
�͐쐅�ʏ��,�`����@���V��,2021/2/28 12:10,-1.01
�͐쐅�ʏ��,�`����@���V��,2021/2/28 12:20,-1.01
�͐쐅�ʏ��,�`����@���V��,2021/2/28 12:30,-1.01
�͐쐅�ʏ��,�`����@���V��,2021/2/28 12:40,-1.01
�͐쐅�ʏ��,�`����@���V��,2021/2/28 12:50,-1.01
�͐쐅�ʏ��,�`����@���V��,2021/2/28 13:00,-1.01
�͐쐅�ʏ��,�`����@���V��,2021/2/28 13:10,-1.01
�͐쐅�ʏ��,�`����@���V��,2021/2/28 13:20,-1.01
�͐쐅�ʏ��,�`����@���V��,2021/2/28 13:30,-1.01
�͐쐅�ʏ��,�`����@���V��,2021/2/28 13:40,-1.01
�͐쐅�ʏ��,�`����@���V��,2021/2/28 13:50,-1.01
�͐쐅�ʏ��,�`����@���V��,2021/2/28 14:00,-1.01
�͐쐅�ʏ��,�`����@���V��,2021/2/28 14:10,-1.01
�͐쐅�ʏ��,�`����@���V��,2021/2/28 14:20,-1.01
�͐쐅�ʏ��,�`����@���V��,2021/2/28 14:30,-1.01
�͐쐅�ʏ��,�`����@���V��,2021/2/28 14:40,-1.01
�͐쐅�ʏ��,�`����@���V��,2021/2/28 14:50,-1.01
�͐쐅�ʏ��,�`����@���V��,2021/2/28 15:00,-1
�͐쐅�ʏ��,�`����@���V��,2021/2/28 15:10,-1.01
�͐쐅�ʏ��,�`����@���V��,2021/2/28 15:20,-1
�͐쐅�ʏ��,�`����@���V��,2021/2/28 15:30,-1
�͐쐅�ʏ��,�`����@���V��,2021/2/28 15:40,-1
�͐쐅�ʏ��,�`����@���V��,2021/2/28 15:50,-1
�͐쐅�ʏ��,�`����@���V��,2021/2/28 16:00,-1
�͐쐅�ʏ��,�`����@���V��,2021/2/28 16:10,-1
�͐쐅�ʏ��,�`����@���V��,2021/2/28 16:20,-1
�͐쐅�ʏ��,�`����@���V��,2021/2/28 16:30,-1
�͐쐅�ʏ��,�`����@���V��,2021/2/28 16:40,-1
�͐쐅�ʏ��,�`����@���V��,2021/2/28 16:50,-1
�͐쐅�ʏ��,�`����@���V��,2021/2/28 17:00,-1
�͐쐅�ʏ��,�`����@���V��,2021/2/28 17:10,-1
�͐쐅�ʏ��,�`����@���V��,2021/2/28 17:20,-1
�͐쐅�ʏ��,�`����@���V��,2021/2/28 17:30,-1
�͐쐅�ʏ��,�`����@���V��,2021/2/28 17:40,-1
�͐쐅�ʏ��,�`����@���V��,2021/2/28 17:50,-1
�͐쐅�ʏ��,�`����@���V��,2021/2/28 18:00,-1
�͐쐅�ʏ��,�`����@���V��,2021/2/28 18:10,-1
�͐쐅�ʏ��,�`����@���V��,2021/2/28 18:20,-1
�͐쐅�ʏ��,�`����@���V��,2021/2/28 18:30,-1
�͐쐅�ʏ��,�`����@���V��,2021/2/28 18:40,-1
�͐쐅�ʏ��,�`����@���V��,2021/2/28 18:50,-1
�͐쐅�ʏ��,�`����@���V��,2021/2/28 19:00,-1
�͐쐅�ʏ��,�`����@���V��,2021/2/28 19:10,-1
�͐쐅�ʏ��,�`����@���V��,2021/2/28 19:20,-1
�͐쐅�ʏ��,�`����@���V��,2021/2/28 19:30,-1.01
�͐쐅�ʏ��,�`����@���V��,2021/2/28 19:40,-1.01
�͐쐅�ʏ��,�`����@���V��,2021/2/28 19:50,-1
�͐쐅�ʏ��,�`����@���V��,2021/2/28 20:00,-1
�͐쐅�ʏ��,�`����@���V��,2021/2/28 20:10,-1
�͐쐅�ʏ��,�`����@���V��,2021/2/28 20:20,-1
�͐쐅�ʏ��,�`����@���V��,2021/2/28 20:30,-1
�͐쐅�ʏ��,�`����@���V��,2021/2/28 20:40,-1
�͐쐅�ʏ��,�`����@���V��,2021/2/28 20:50,-1
�͐쐅�ʏ��,�`����@���V��,2021/2/28 21:00,-1
�͐쐅�ʏ��,�`����@���V��,2021/2/28 21:10,-1
�͐쐅�ʏ��,�`����@���V��,2021/2/28 21:20,-1.01
�͐쐅�ʏ��,�`����@���V��,2021/2/28 21:30,-1
�͐쐅�ʏ��,�`����@���V��,2021/2/28 21:40,-1
�͐쐅�ʏ��,�`����@���V��,2021/2/28 21:50,-1
�͐쐅�ʏ��,�`����@���V��,2021/2/28 22:00,-1
�͐쐅�ʏ��,�`����@���V��,2021/2/28 22:10,-1
�͐쐅�ʏ��,�`����@���V��,2021/2/28 22:20,-1
�͐쐅�ʏ��,�`����@���V��,2021/2/28 22:30,-1
�͐쐅�ʏ��,�`����@���V��,2021/2/28 22:40,-1
�͐쐅�ʏ��,�`����@���V��,2021/2/28 22:50,-1
�͐쐅�ʏ��,�`����@���V��,2021/2/28 23:00,-1
�͐쐅�ʏ��,�`����@���V��,2021/2/28 23:10,-1
�͐쐅�ʏ��,�`����@���V��,2021/2/28 23:20,-1
�͐쐅�ʏ��,�`����@���V��,2021/2/28 23:30,-1
�͐쐅�ʏ��,�`����@���V��,2021/2/28 23:40,-1
�͐쐅�ʏ��,�`����@���V��,2021/2/28 23:50,-1
�͐쐅�ʏ��,�`����@���V��,2021/3/1 0:00,-1
�͐쐅�ʏ��,�`����@���V��,2021/3/1 0:10,-1
�͐쐅�ʏ��,�`����@���V��,2021/3/1 0:20,-1
�͐쐅�ʏ��,�`����@���V��,2021/3/1 0:30,-1
�͐쐅�ʏ��,�`����@���V��,2021/3/1 0:40,-1
�͐쐅�ʏ��,�`����@���V��,2021/3/1 0:50,-1
�͐쐅�ʏ��,�`����@���V��,2021/3/1 1:00,-1
�͐쐅�ʏ��,�`����@���V��,2021/3/1 1:10,-1
�͐쐅�ʏ��,�`����@���V��,2021/3/1 1:20,-1
�͐쐅�ʏ��,�`����@���V��,2021/3/1 1:30,-1
�͐쐅�ʏ��,�`����@���V��,2021/3/1 1:40,-1
�͐쐅�ʏ��,�`����@���V��,2021/3/1 1:50,-1
�͐쐅�ʏ��,�`����@���V��,2021/3/1 2:00,-1
�͐쐅�ʏ��,�`����@���V��,2021/3/1 2:10,-1
�͐쐅�ʏ��,�`����@���V��,2021/3/1 2:20,-1
�͐쐅�ʏ��,�`����@���V��,2021/3/1 2:30,-1
�͐쐅�ʏ��,�`����@���V��,2021/3/1 2:40,-1
�͐쐅�ʏ��,�`����@���V��,2021/3/1 2:50,-1
�͐쐅�ʏ��,�`����@���V��,2021/3/1 3:00,-1
�͐쐅�ʏ��,�`����@���V��,2021/3/1 3:10,-1
�͐쐅�ʏ��,�`����@���V��,2021/3/1 3:20,-1
�͐쐅�ʏ��,�`����@���V��,2021/3/1 3:30,-1
�͐쐅�ʏ��,�`����@���V��,2021/3/1 3:40,-1
�͐쐅�ʏ��,�`����@���V��,2021/3/1 3:50,-1
�͐쐅�ʏ��,�`����@���V��,2021/3/1 4:00,-1
�͐쐅�ʏ��,�`����@���V��,2021/3/1 4:10,-1
�͐쐅�ʏ��,�`����@���V��,2021/3/1 4:20,-1
�͐쐅�ʏ��,�`����@���V��,2021/3/1 4:30,-1
�͐쐅�ʏ��,�`����@���V��,2021/3/1 4:40,-1
�͐쐅�ʏ��,�`����@���V��,2021/3/1 4:50,-1
�͐쐅�ʏ��,�`����@���V��,2021/3/1 5:00,-1
�͐쐅�ʏ��,�`����@���V��,2021/3/1 5:10,-1
�͐쐅�ʏ��,�`����@���V��,2021/3/1 5:20,-1
�͐쐅�ʏ��,�`����@���V��,2021/3/1 5:30,-1
�͐쐅�ʏ��,�`����@���V��,2021/3/1 5:40,-1
�͐쐅�ʏ��,�`����@���V��,2021/3/1 5:50,-1
�͐쐅�ʏ��,�`����@���V��,2021/3/1 6:00,-1
�͐쐅�ʏ��,�`����@���V��,2021/3/1 6:10,-1
�͐쐅�ʏ��,�`����@���V��,2021/3/1 6:20,-1
�͐쐅�ʏ��,�`����@���V��,2021/3/1 6:30,-1
�͐쐅�ʏ��,�`����@���V��,2021/3/1 6:40,-1
�͐쐅�ʏ��,�`����@���V��,2021/3/1 6:50,-1
�͐쐅�ʏ��,�`����@���V��,2021/3/1 7:00,-1
�͐쐅�ʏ��,�`����@���V��,2021/3/1 7:10,-1
�͐쐅�ʏ��,�`����@���V��,2021/3/1 7:20,-1
�͐쐅�ʏ��,�`����@���V��,2021/3/1 7:30,-1
�͐쐅�ʏ��,�`����@���V��,2021/3/1 7:40,-1
�͐쐅�ʏ��,�`����@���V��,2021/3/1 7:50,-1
�͐쐅�ʏ��,�`����@���V��,2021/3/1 8:00,-1.01
�͐쐅�ʏ��,�`����@���V��,2021/3/1 8:10,-1
�͐쐅�ʏ��,�`����@���V��,2021/3/1 8:20,-1.01
�͐쐅�ʏ��,�`����@���V��,2021/3/1 8:30,-1.01
�͐쐅�ʏ��,�`����@���V��,2021/3/1 8:40,-1
�͐쐅�ʏ��,�`����@���V��,2021/3/1 8:50,-1
�͐쐅�ʏ��,�`����@���V��,2021/3/1 9:00,-1.01
�͐쐅�ʏ��,�`����@���V��,2021/3/1 9:10,-1
�͐쐅�ʏ��,�`����@���V��,2021/3/1 9:20,-1
�͐쐅�ʏ��,�`����@���V��,2021/3/1 9:30,-1.01
�͐쐅�ʏ��,�`����@���V��,2021/3/1 9:40,-1
�͐쐅�ʏ��,�`����@���V��,2021/3/1 9:50,-1.01
�͐쐅�ʏ��,�`����@���V��,2021/3/1 10:00,-1.01
�͐쐅�ʏ��,�`����@���V��,2021/3/1 10:10,-1
�͐쐅�ʏ��,�`����@���V��,2021/3/1 10:20,-1
�͐쐅�ʏ��,�`����@���V��,2021/3/1 10:30,-1.01
�͐쐅�ʏ��,�`����@���V��,2021/3/1 10:40,-1.01
�͐쐅�ʏ��,�`����@���V��,2021/3/1 10:50,-1.01
�͐쐅�ʏ��,�`����@���V��,2021/3/1 11:00,-1.01
�͐쐅�ʏ��,�`����@���V��,2021/3/1 11:10,-1.01
�͐쐅�ʏ��,�`����@���V��,2021/3/1 11:20,-1.01
�͐쐅�ʏ��,�`����@���V��,2021/3/1 11:30,-1.01
�͐쐅�ʏ��,�`����@���V��,2021/3/1 11:40,-1.01
�͐쐅�ʏ��,�`����@���V��,2021/3/1 11:50,-1.01
�͐쐅�ʏ��,�`����@���V��,2021/3/1 12:00,-1.01
�͐쐅�ʏ��,�`����@���V��,2021/3/1 12:10,-1.01
�͐쐅�ʏ��,�`����@���V��,2021/3/1 12:20,-1.01
�͐쐅�ʏ��,�`����@���V��,2021/3/1 12:30,-1.01
�͐쐅�ʏ��,�`����@���V��,2021/3/1 12:40,-1.01
�͐쐅�ʏ��,�`����@���V��,2021/3/1 12:50,-1.01
�͐쐅�ʏ��,�`����@���V��,2021/3/1 13:00,-1.01
�͐쐅�ʏ��,�`����@���V��,2021/3/1 13:10,-1.01
�͐쐅�ʏ��,�`����@���V��,2021/3/1 13:20,-1.01
�͐쐅�ʏ��,�`����@���V��,2021/3/1 13:30,-1.01
�͐쐅�ʏ��,�`����@���V��,2021/3/1 13:40,-1.01
�͐쐅�ʏ��,�`����@���V��,2021/3/1 13:50,-1.01
�͐쐅�ʏ��,�`����@���V��,2021/3/1 14:00,-1.01
�͐쐅�ʏ��,�`����@���V��,2021/3/1 14:10,-1.01
�͐쐅�ʏ��,�`����@���V��,2021/3/1 14:20,-1.01
�͐쐅�ʏ��,�`����@���V��,2021/3/1 14:30,-1.01
�͐쐅�ʏ��,�`����@���V��,2021/3/1 14:40,-1.01
�͐쐅�ʏ��,�`����@���V��,2021/3/1 14:50,-1.01
�͐쐅�ʏ��,�`����@���V��,2021/3/1 15:00,-1.01
�͐쐅�ʏ��,�`����@���V��,2021/3/1 15:10,-1.01
�͐쐅�ʏ��,�`����@���V��,2021/3/1 15:20,-1.01
�͐쐅�ʏ��,�`����@���V��,2021/3/1 15:30,-1.01
�͐쐅�ʏ��,�`����@���V��,2021/3/1 15:40,-1.01
�͐쐅�ʏ��,�`����@���V��,2021/3/1 15:50,-1.01
�͐쐅�ʏ��,�`����@���V��,2021/3/1 16:00,-1.01
�͐쐅�ʏ��,�`����@���V��,2021/3/1 16:10,-1.01
�͐쐅�ʏ��,�`����@���V��,2021/3/1 16:20,-1.01
�͐쐅�ʏ��,�`����@���V��,2021/3/1 16:30,-1.01
�͐쐅�ʏ��,�`����@���V��,2021/3/1 16:40,-1.01
�͐쐅�ʏ��,�`����@���V��,2021/3/1 16:50,-1.01
�͐쐅�ʏ��,�`����@���V��,2021/3/1 17:00,-1.01
�͐쐅�ʏ��,�`����@���V��,2021/3/1 17:10,-1.01
�͐쐅�ʏ��,�`����@���V��,2021/3/1 17:20,-1.01
�͐쐅�ʏ��,�`����@���V��,2021/3/1 17:30,-1.01
�͐쐅�ʏ��,�`����@���V��,2021/3/1 17:40,-1.01
�͐쐅�ʏ��,�`����@���V��,2021/3/1 17:50,-1.01
�͐쐅�ʏ��,�`����@���V��,2021/3/1 18:00,-1.01
�͐쐅�ʏ��,�`����@���V��,2021/3/1 18:10,-1.01
�͐쐅�ʏ��,�`����@���V��,2021/3/1 18:20,-1.01
�͐쐅�ʏ��,�`����@���V��,2021/3/1 18:30,-1.01
�͐쐅�ʏ��,�`����@���V��,2021/3/1 18:40,-1.01
�͐쐅�ʏ��,�`����@���V��,2021/3/1 18:50,-1.01
�͐쐅�ʏ��,�`����@���V��,2021/3/1 19:00,-1.01
�͐쐅�ʏ��,�`����@���V��,2021/3/1 19:10,-1.01
�͐쐅�ʏ��,�`����@���V��,2021/3/1 19:20,-1.01
�͐쐅�ʏ��,�`����@���V��,2021/3/1 19:30,-1.01
�͐쐅�ʏ��,�`����@���V��,2021/3/1 19:40,-1.01
�͐쐅�ʏ��,�`����@���V��,2021/3/1 19:50,-1.01
�͐쐅�ʏ��,�`����@���V��,2021/3/1 20:00,-1.01
�͐쐅�ʏ��,�`����@���V��,2021/3/1 20:10,-1.01
�͐쐅�ʏ��,�`����@���V��,2021/3/1 20:20,-1.01
�͐쐅�ʏ��,�`����@���V��,2021/3/1 20:30,-1.01
�͐쐅�ʏ��,�`����@���V��,2021/3/1 20:40,-1.01
�͐쐅�ʏ��,�`����@���V��,2021/3/1 20:50,-1.01
�͐쐅�ʏ��,�`����@���V��,2021/3/1 21:00,-1.01
�͐쐅�ʏ��,�`����@���V��,2021/3/1 21:10,-1.01
�͐쐅�ʏ��,�`����@���V��,2021/3/1 21:20,-1.01
�͐쐅�ʏ��,�`����@���V��,2021/3/1 21:30,-1.01
�͐쐅�ʏ��,�`����@���V��,2021/3/1 21:40,-1.01
�͐쐅�ʏ��,�`����@���V��,2021/3/1 21:50,-1.01
�͐쐅�ʏ��,�`����@���V��,2021/3/1 22:00,-1.01
�͐쐅�ʏ��,�`����@���V��,2021/3/1 22:10,-1.01
�͐쐅�ʏ��,�`����@���V��,2021/3/1 22:20,-1.01
�͐쐅�ʏ��,�`����@���V��,2021/3/1 22:30,-1.01
�͐쐅�ʏ��,�`����@���V��,2021/3/1 22:40,-1.01
�͐쐅�ʏ��,�`����@���V��,2021/3/1 22:50,-1.01
�͐쐅�ʏ��,�`����@���V��,2021/3/1 23:00,-1.01
�͐쐅�ʏ��,�`����@���V��,2021/3/1 23:10,-1.01
�͐쐅�ʏ��,�`����@���V��,2021/3/1 23:20,-1.01
�͐쐅�ʏ��,�`����@���V��,2021/3/1 23:30,-1.01
�͐쐅�ʏ��,�`����@���V��,2021/3/1 23:40,-1.01
�͐쐅�ʏ��,�`����@���V��,2021/3/1 23:50,-1.01
�͐쐅�ʏ��,�`����@���V��,2021/3/2 0:00,-1.01
�͐쐅�ʏ��,�`����@���V��,2021/3/2 0:10,-1.01
�͐쐅�ʏ��,�`����@���V��,2021/3/2 0:20,-1.01
�͐쐅�ʏ��,�`����@���V��,2021/3/2 0:30,-1.01
�͐쐅�ʏ��,�`����@���V��,2021/3/2 0:40,-1.01
�͐쐅�ʏ��,�`����@���V��,2021/3/2 0:50,-1.01
�͐쐅�ʏ��,�`����@���V��,2021/3/2 1:00,-1.01
�͐쐅�ʏ��,�`����@���V��,2021/3/2 1:10,-1.01
�͐쐅�ʏ��,�`����@���V��,2021/3/2 1:20,-1.01
�͐쐅�ʏ��,�`����@���V��,2021/3/2 1:30,-1.01
�͐쐅�ʏ��,�`����@���V��,2021/3/2 1:40,-1.01
�͐쐅�ʏ��,�`����@���V��,2021/3/2 1:50,-1.01
�͐쐅�ʏ��,�`����@���V��,2021/3/2 2:00,-1.01
�͐쐅�ʏ��,�`����@���V��,2021/3/2 2:10,-1.01
�͐쐅�ʏ��,�`����@���V��,2021/3/2 2:20,-1
�͐쐅�ʏ��,�`����@���V��,2021/3/2 2:30,-1
�͐쐅�ʏ��,�`����@���V��,2021/3/2 2:40,-1
�͐쐅�ʏ��,�`����@���V��,2021/3/2 2:50,-1
�͐쐅�ʏ��,�`����@���V��,2021/3/2 3:00,-1
�͐쐅�ʏ��,�`����@���V��,2021/3/2 3:10,-1
�͐쐅�ʏ��,�`����@���V��,2021/3/2 3:20,-1.01
�͐쐅�ʏ��,�`����@���V��,2021/3/2 3:30,-1
�͐쐅�ʏ��,�`����@���V��,2021/3/2 3:40,-1.01
�͐쐅�ʏ��,�`����@���V��,2021/3/2 3:50,-1.01
�͐쐅�ʏ��,�`����@���V��,2021/3/2 4:00,-1
�͐쐅�ʏ��,�`����@���V��,2021/3/2 4:10,-1
�͐쐅�ʏ��,�`����@���V��,2021/3/2 4:20,-1
�͐쐅�ʏ��,�`����@���V��,2021/3/2 4:30,-1
�͐쐅�ʏ��,�`����@���V��,2021/3/2 4:40,-1
�͐쐅�ʏ��,�`����@���V��,2021/3/2 4:50,-1
�͐쐅�ʏ��,�`����@���V��,2021/3/2 5:00,-1
�͐쐅�ʏ��,�`����@���V��,2021/3/2 5:10,-1
�͐쐅�ʏ��,�`����@���V��,2021/3/2 5:20,-1
�͐쐅�ʏ��,�`����@���V��,2021/3/2 5:30,-1
�͐쐅�ʏ��,�`����@���V��,2021/3/2 5:40,-1
�͐쐅�ʏ��,�`����@���V��,2021/3/2 5:50,-1
�͐쐅�ʏ��,�`����@���V��,2021/3/2 6:00,-1
�͐쐅�ʏ��,�`����@���V��,2021/3/2 6:10,-1
�͐쐅�ʏ��,�`����@���V��,2021/3/2 6:20,-1
�͐쐅�ʏ��,�`����@���V��,2021/3/2 6:30,-1
�͐쐅�ʏ��,�`����@���V��,2021/3/2 6:40,-1
�͐쐅�ʏ��,�`����@���V��,2021/3/2 6:50,-1.01
�͐쐅�ʏ��,�`����@���V��,2021/3/2 7:00,-1
�͐쐅�ʏ��,�`����@���V��,2021/3/2 7:10,-1
�͐쐅�ʏ��,�`����@���V��,2021/3/2 7:20,-1
�͐쐅�ʏ��,�`����@���V��,2021/3/2 7:30,-1
�͐쐅�ʏ��,�`����@���V��,2021/3/2 7:40,-1
�͐쐅�ʏ��,�`����@���V��,2021/3/2 7:50,-1
�͐쐅�ʏ��,�`����@���V��,2021/3/2 8:00,-1.01
�͐쐅�ʏ��,�`����@���V��,2021/3/2 8:10,-1.01
�͐쐅�ʏ��,�`����@���V��,2021/3/2 8:20,-1.01
�͐쐅�ʏ��,�`����@���V��,2021/3/2 8:30,-1.01
�͐쐅�ʏ��,�`����@���V��,2021/3/2 8:40,-1.01
�͐쐅�ʏ��,�`����@���V��,2021/3/2 8:50,-1
�͐쐅�ʏ��,�`����@���V��,2021/3/2 9:00,-1
�͐쐅�ʏ��,�`����@���V��,2021/3/2 9:10,-1
�͐쐅�ʏ��,�`����@���V��,2021/3/2 9:20,-0.97
�͐쐅�ʏ��,�`����@���V��,2021/3/2 9:30,-0.94
�͐쐅�ʏ��,�`����@���V��,2021/3/2 9:40,-0.91
�͐쐅�ʏ��,�`����@���V��,2021/3/2 9:50,-0.9
�͐쐅�ʏ��,�`����@���V��,2021/3/2 10:00,-0.9
�͐쐅�ʏ��,�`����@���V��,2021/3/2 10:10,-0.91
�͐쐅�ʏ��,�`����@���V��,2021/3/2 10:20,-0.91
�͐쐅�ʏ��,�`����@���V��,2021/3/2 10:30,-0.93
�͐쐅�ʏ��,�`����@���V��,2021/3/2 10:40,-0.93
�͐쐅�ʏ��,�`����@���V��,2021/3/2 10:50,-0.94
�͐쐅�ʏ��,�`����@���V��,2021/3/2 11:00,-0.95
�͐쐅�ʏ��,�`����@���V��,2021/3/2 11:10,-0.96
�͐쐅�ʏ��,�`����@���V��,2021/3/2 11:20,-0.95
�͐쐅�ʏ��,�`����@���V��,2021/3/2 11:30,-0.92
�͐쐅�ʏ��,�`����@���V��,2021/3/2 11:40,-0.83
�͐쐅�ʏ��,�`����@���V��,2021/3/2 11:50,-0.78
�͐쐅�ʏ��,�`����@���V��,2021/3/2 12:00,-0.79
�͐쐅�ʏ��,�`����@���V��,2021/3/2 12:10,-0.81
�͐쐅�ʏ��,�`����@���V��,2021/3/2 12:20,-0.8
�͐쐅�ʏ��,�`����@���V��,2021/3/2 12:30,-0.79
�͐쐅�ʏ��,�`����@���V��,2021/3/2 12:40,-0.8
�͐쐅�ʏ��,�`����@���V��,2021/3/2 12:50,-0.79
�͐쐅�ʏ��,�`����@���V��,2021/3/2 13:00,-0.79
�͐쐅�ʏ��,�`����@���V��,2021/3/2 13:10,-0.79
�͐쐅�ʏ��,�`����@���V��,2021/3/2 13:20,-0.8
�͐쐅�ʏ��,�`����@���V��,2021/3/2 13:30,-0.81
�͐쐅�ʏ��,�`����@���V��,2021/3/2 13:40,-0.81
�͐쐅�ʏ��,�`����@���V��,2021/3/2 13:50,-0.82
�͐쐅�ʏ��,�`����@���V��,2021/3/2 14:00,-0.81
�͐쐅�ʏ��,�`����@���V��,2021/3/2 14:10,-0.81
�͐쐅�ʏ��,�`����@���V��,2021/3/2 14:20,-0.83
�͐쐅�ʏ��,�`����@���V��,2021/3/2 14:30,-0.82
�͐쐅�ʏ��,�`����@���V��,2021/3/2 14:40,-0.83
�͐쐅�ʏ��,�`����@���V��,2021/3/2 14:50,-0.84
�͐쐅�ʏ��,�`����@���V��,2021/3/2 15:00,-0.87
�͐쐅�ʏ��,�`����@���V��,2021/3/2 15:10,-0.88
�͐쐅�ʏ��,�`����@���V��,2021/3/2 15:20,-0.89
�͐쐅�ʏ��,�`����@���V��,2021/3/2 15:30,-0.89
�͐쐅�ʏ��,�`����@���V��,2021/3/2 15:40,-0.9
�͐쐅�ʏ��,�`����@���V��,2021/3/2 15:50,-0.9
�͐쐅�ʏ��,�`����@���V��,2021/3/2 16:00,-0.9
�͐쐅�ʏ��,�`����@���V��,2021/3/2 16:10,-0.9
�͐쐅�ʏ��,�`����@���V��,2021/3/2 16:20,-0.91
�͐쐅�ʏ��,�`����@���V��,2021/3/2 16:30,-0.91
�͐쐅�ʏ��,�`����@���V��,2021/3/2 16:40,-0.92
�͐쐅�ʏ��,�`����@���V��,2021/3/2 16:50,-0.93
�͐쐅�ʏ��,�`����@���V��,2021/3/2 17:00,-0.94
�͐쐅�ʏ��,�`����@���V��,2021/3/2 17:10,-0.95
�͐쐅�ʏ��,�`����@���V��,2021/3/2 17:20,-0.96
�͐쐅�ʏ��,�`����@���V��,2021/3/2 17:30,-0.96
�͐쐅�ʏ��,�`����@���V��,2021/3/2 17:40,-0.97
�͐쐅�ʏ��,�`����@���V��,2021/3/2 17:50,-0.97
�͐쐅�ʏ��,�`����@���V��,2021/3/2 18:00,-0.97
�͐쐅�ʏ��,�`����@���V��,2021/3/2 18:10,-0.98
�͐쐅�ʏ��,�`����@���V��,2021/3/2 18:20,-0.98
�͐쐅�ʏ��,�`����@���V��,2021/3/2 18:30,-0.98
�͐쐅�ʏ��,�`����@���V��,2021/3/2 18:40,-0.98
�͐쐅�ʏ��,�`����@���V��,2021/3/2 18:50,-0.98
�͐쐅�ʏ��,�`����@���V��,2021/3/2 19:00,-0.97
�͐쐅�ʏ��,�`����@���V��,2021/3/2 19:10,-0.97
�͐쐅�ʏ��,�`����@���V��,2021/3/2 19:20,-0.96
�͐쐅�ʏ��,�`����@���V��,2021/3/2 19:30,-0.96
�͐쐅�ʏ��,�`����@���V��,2021/3/2 19:40,-0.96
�͐쐅�ʏ��,�`����@���V��,2021/3/2 19:50,-0.96
�͐쐅�ʏ��,�`����@���V��,2021/3/2 20:00,-0.96
�͐쐅�ʏ��,�`����@���V��,2021/3/2 20:10,-0.95
�͐쐅�ʏ��,�`����@���V��,2021/3/2 20:20,-0.93
�͐쐅�ʏ��,�`����@���V��,2021/3/2 20:30,-0.91
�͐쐅�ʏ��,�`����@���V��,2021/3/2 20:40,-0.89
�͐쐅�ʏ��,�`����@���V��,2021/3/2 20:50,-0.87
�͐쐅�ʏ��,�`����@���V��,2021/3/2 21:00,-0.88
�͐쐅�ʏ��,�`����@���V��,2021/3/2 21:10,-0.88
�͐쐅�ʏ��,�`����@���V��,2021/3/2 21:20,-0.9
�͐쐅�ʏ��,�`����@���V��,2021/3/2 21:30,-0.91
�͐쐅�ʏ��,�`����@���V��,2021/3/2 21:40,-0.92
�͐쐅�ʏ��,�`����@���V��,2021/3/2 21:50,-0.92
�͐쐅�ʏ��,�`����@���V��,2021/3/2 22:00,-0.93
�͐쐅�ʏ��,�`����@���V��,2021/3/2 22:10,-0.93
�͐쐅�ʏ��,�`����@���V��,2021/3/2 22:20,-0.93
�͐쐅�ʏ��,�`����@���V��,2021/3/2 22:30,-0.94
�͐쐅�ʏ��,�`����@���V��,2021/3/2 22:40,-0.94
�͐쐅�ʏ��,�`����@���V��,2021/3/2 22:50,-0.93
�͐쐅�ʏ��,�`����@���V��,2021/3/2 23:00,-0.93
�͐쐅�ʏ��,�`����@���V��,2021/3/2 23:10,-0.94
�͐쐅�ʏ��,�`����@���V��,2021/3/2 23:20,-0.94
�͐쐅�ʏ��,�`����@���V��,2021/3/2 23:30,-0.94
�͐쐅�ʏ��,�`����@���V��,2021/3/2 23:40,-0.93
�͐쐅�ʏ��,�`����@���V��,2021/3/2 23:50,-0.93
�͐쐅�ʏ��,�`����@���V��,2021/3/3 0:00,-0.94
�͐쐅�ʏ��,�`����@���V��,2021/3/3 0:10,-0.94
�͐쐅�ʏ��,�`����@���V��,2021/3/3 0:20,-0.94
�͐쐅�ʏ��,�`����@���V��,2021/3/3 0:30,-0.95
�͐쐅�ʏ��,�`����@���V��,2021/3/3 0:40,-0.95
�͐쐅�ʏ��,�`����@���V��,2021/3/3 0:50,-0.96
�͐쐅�ʏ��,�`����@���V��,2021/3/3 1:00,-0.96
�͐쐅�ʏ��,�`����@���V��,2021/3/3 1:10,-0.96
�͐쐅�ʏ��,�`����@���V��,2021/3/3 1:20,-0.97
�͐쐅�ʏ��,�`����@���V��,2021/3/3 1:30,-0.97
�͐쐅�ʏ��,�`����@���V��,2021/3/3 1:40,-0.98
�͐쐅�ʏ��,�`����@���V��,2021/3/3 1:50,-0.98
�͐쐅�ʏ��,�`����@���V��,2021/3/3 2:00,-0.98
�͐쐅�ʏ��,�`����@���V��,2021/3/3 2:10,-0.98
�͐쐅�ʏ��,�`����@���V��,2021/3/3 2:20,-0.99
�͐쐅�ʏ��,�`����@���V��,2021/3/3 2:30,-0.99
�͐쐅�ʏ��,�`����@���V��,2021/3/3 2:40,-0.99
�͐쐅�ʏ��,�`����@���V��,2021/3/3 2:50,-0.99
�͐쐅�ʏ��,�`����@���V��,2021/3/3 3:00,-0.99
�͐쐅�ʏ��,�`����@���V��,2021/3/3 3:10,-0.99
�͐쐅�ʏ��,�`����@���V��,2021/3/3 3:20,-0.99
�͐쐅�ʏ��,�`����@���V��,2021/3/3 3:30,-0.99
�͐쐅�ʏ��,�`����@���V��,2021/3/3 3:40,-0.99
�͐쐅�ʏ��,�`����@���V��,2021/3/3 3:50,-0.99
�͐쐅�ʏ��,�`����@���V��,2021/3/3 4:00,-0.99
�͐쐅�ʏ��,�`����@���V��,2021/3/3 4:10,-0.99
�͐쐅�ʏ��,�`����@���V��,2021/3/3 4:20,-0.99
�͐쐅�ʏ��,�`����@���V��,2021/3/3 4:30,-0.99
�͐쐅�ʏ��,�`����@���V��,2021/3/3 4:40,-0.98
�͐쐅�ʏ��,�`����@���V��,2021/3/3 4:50,-0.98
�͐쐅�ʏ��,�`����@���V��,2021/3/3 5:00,-0.98
�͐쐅�ʏ��,�`����@���V��,2021/3/3 5:10,-0.98
�͐쐅�ʏ��,�`����@���V��,2021/3/3 5:20,-0.98
�͐쐅�ʏ��,�`����@���V��,2021/3/3 5:30,-0.99
�͐쐅�ʏ��,�`����@���V��,2021/3/3 5:40,-0.99
�͐쐅�ʏ��,�`����@���V��,2021/3/3 5:50,-0.99
�͐쐅�ʏ��,�`����@���V��,2021/3/3 6:00,-0.98
�͐쐅�ʏ��,�`����@���V��,2021/3/3 6:10,-0.98
�͐쐅�ʏ��,�`����@���V��,2021/3/3 6:20,-0.97
�͐쐅�ʏ��,�`����@���V��,2021/3/3 6:30,-0.97
�͐쐅�ʏ��,�`����@���V��,2021/3/3 6:40,-0.97
�͐쐅�ʏ��,�`����@���V��,2021/3/3 6:50,-0.98
�͐쐅�ʏ��,�`����@���V��,2021/3/3 7:00,-0.98
�͐쐅�ʏ��,�`����@���V��,2021/3/3 7:10,-0.98
�͐쐅�ʏ��,�`����@���V��,2021/3/3 7:20,-0.99
�͐쐅�ʏ��,�`����@���V��,2021/3/3 7:30,-0.99
�͐쐅�ʏ��,�`����@���V��,2021/3/3 7:40,-1
�͐쐅�ʏ��,�`����@���V��,2021/3/3 7:50,-1
�͐쐅�ʏ��,�`����@���V��,2021/3/3 8:00,-1
�͐쐅�ʏ��,�`����@���V��,2021/3/3 8:10,-0.99
�͐쐅�ʏ��,�`����@���V��,2021/3/3 8:20,-0.99
�͐쐅�ʏ��,�`����@���V��,2021/3/3 8:30,-0.99
�͐쐅�ʏ��,�`����@���V��,2021/3/3 8:40,-0.99
�͐쐅�ʏ��,�`����@���V��,2021/3/3 8:50,-0.99
�͐쐅�ʏ��,�`����@���V��,2021/3/3 9:00,-0.99
�͐쐅�ʏ��,�`����@���V��,2021/3/3 9:10,-1
�͐쐅�ʏ��,�`����@���V��,2021/3/3 9:20,-1
�͐쐅�ʏ��,�`����@���V��,2021/3/3 9:30,-1
�͐쐅�ʏ��,�`����@���V��,2021/3/3 9:40,-1
�͐쐅�ʏ��,�`����@���V��,2021/3/3 9:50,-1
�͐쐅�ʏ��,�`����@���V��,2021/3/3 10:00,-1
�͐쐅�ʏ��,�`����@���V��,2021/3/3 10:10,-1
�͐쐅�ʏ��,�`����@���V��,2021/3/3 10:20,-1
�͐쐅�ʏ��,�`����@���V��,2021/3/3 10:30,-1
�͐쐅�ʏ��,�`����@���V��,2021/3/3 10:40,-1
�͐쐅�ʏ��,�`����@���V��,2021/3/3 10:50,-1
�͐쐅�ʏ��,�`����@���V��,2021/3/3 11:00,-1
�͐쐅�ʏ��,�`����@���V��,2021/3/3 11:10,-1
�͐쐅�ʏ��,�`����@���V��,2021/3/3 11:20,-1
�͐쐅�ʏ��,�`����@���V��,2021/3/3 11:30,-1
�͐쐅�ʏ��,�`����@���V��,2021/3/3 11:40,-1
�͐쐅�ʏ��,�`����@���V��,2021/3/3 11:50,-1
�͐쐅�ʏ��,�`����@���V��,2021/3/3 12:00,-1
�͐쐅�ʏ��,�`����@���V��,2021/3/3 12:10,-1
�͐쐅�ʏ��,�`����@���V��,2021/3/3 12:20,-1
�͐쐅�ʏ��,�`����@���V��,2021/3/3 12:30,-1
�͐쐅�ʏ��,�`����@���V��,2021/3/3 12:40,-1
�͐쐅�ʏ��,�`����@���V��,2021/3/3 12:50,-1
�͐쐅�ʏ��,�`����@���V��,2021/3/3 13:00,-0.99
�͐쐅�ʏ��,�`����@���V��,2021/3/3 13:10,-0.99
�͐쐅�ʏ��,�`����@���V��,2021/3/3 13:20,-1
�͐쐅�ʏ��,�`����@���V��,2021/3/3 13:30,-1
�͐쐅�ʏ��,�`����@���V��,2021/3/3 13:40,-1
�͐쐅�ʏ��,�`����@���V��,2021/3/3 13:50,-1
�͐쐅�ʏ��,�`����@���V��,2021/3/3 14:00,-1
�͐쐅�ʏ��,�`����@���V��,2021/3/3 14:10,-1
�͐쐅�ʏ��,�`����@���V��,2021/3/3 14:20,-1
�͐쐅�ʏ��,�`����@���V��,2021/3/3 14:30,-1
�͐쐅�ʏ��,�`����@���V��,2021/3/3 14:40,-1
�͐쐅�ʏ��,�`����@���V��,2021/3/3 14:50,-1
�͐쐅�ʏ��,�`����@���V��,2021/3/3 15:00,-1
�͐쐅�ʏ��,�`����@���V��,2021/3/3 15:10,-1
�͐쐅�ʏ��,�`����@���V��,2021/3/3 15:20,-1
�͐쐅�ʏ��,�`����@���V��,2021/3/3 15:30,-1
�͐쐅�ʏ��,�`����@���V��,2021/3/3 15:40,-1
�͐쐅�ʏ��,�`����@���V��,2021/3/3 15:50,-1
�͐쐅�ʏ��,�`����@���V��,2021/3/3 16:00,-1
�͐쐅�ʏ��,�`����@���V��,2021/3/3 16:10,-1
�͐쐅�ʏ��,�`����@���V��,2021/3/3 16:20,-1
�͐쐅�ʏ��,�`����@���V��,2021/3/3 16:30,-1
�͐쐅�ʏ��,�`����@���V��,2021/3/3 16:40,-1
�͐쐅�ʏ��,�`����@���V��,2021/3/3 16:50,-1
�͐쐅�ʏ��,�`����@���V��,2021/3/3 17:00,-1
�͐쐅�ʏ��,�`����@���V��,2021/3/3 17:10,-1
�͐쐅�ʏ��,�`����@���V��,2021/3/3 17:20,-1
�͐쐅�ʏ��,�`����@���V��,2021/3/3 17:30,-1
�͐쐅�ʏ��,�`����@���V��,2021/3/3 17:40,-1
�͐쐅�ʏ��,�`����@���V��,2021/3/3 17:50,-1
�͐쐅�ʏ��,�`����@���V��,2021/3/3 18:00,-1
�͐쐅�ʏ��,�`����@���V��,2021/3/3 18:10,-1
�͐쐅�ʏ��,�`����@���V��,2021/3/3 18:20,-1
�͐쐅�ʏ��,�`����@���V��,2021/3/3 18:30,-1
�͐쐅�ʏ��,�`����@���V��,2021/3/3 18:40,-1
�͐쐅�ʏ��,�`����@���V��,2021/3/3 18:50,-1
�͐쐅�ʏ��,�`����@���V��,2021/3/3 19:00,-1
�͐쐅�ʏ��,�`����@���V��,2021/3/3 19:10,-1
�͐쐅�ʏ��,�`����@���V��,2021/3/3 19:20,-1
�͐쐅�ʏ��,�`����@���V��,2021/3/3 19:30,-1
�͐쐅�ʏ��,�`����@���V��,2021/3/3 19:40,-1
�͐쐅�ʏ��,�`����@���V��,2021/3/3 19:50,-1
�͐쐅�ʏ��,�`����@���V��,2021/3/3 20:00,-1
�͐쐅�ʏ��,�`����@���V��,2021/3/3 20:10,-1
�͐쐅�ʏ��,�`����@���V��,2021/3/3 20:20,-1
�͐쐅�ʏ��,�`����@���V��,2021/3/3 20:30,-1
�͐쐅�ʏ��,�`����@���V��,2021/3/3 20:40,-1
�͐쐅�ʏ��,�`����@���V��,2021/3/3 20:50,-1
�͐쐅�ʏ��,�`����@���V��,2021/3/3 21:00,-1
�͐쐅�ʏ��,�`����@���V��,2021/3/3 21:10,-1
�͐쐅�ʏ��,�`����@���V��,2021/3/3 21:20,-1
�͐쐅�ʏ��,�`����@���V��,2021/3/3 21:30,-1
�͐쐅�ʏ��,�`����@���V��,2021/3/3 21:40,-1